,,PA_Meas_PMT16A,,PR_Meas_QMR101_102,,RH_Meas_QMH101,,SR_Meas_QMS101,,TA_Meas_QMH101,,GenWind,,GenWind,
time,status,PA,status,PR,status,RH,status,SR,status,TA,status,DirAvg,status,SpdAvg,
2014-11-25, 00:00:04,VALID,917.749,VALID,0,VALID,97.9609,VALID,0,VALID,20.2879,VALID,27,VALID,0,
2014-11-25, 00:01:04,VALID,917.759,VALID,0,VALID,97.9685,VALID,0,VALID,20.2684,VALID,27,VALID,0,
2014-11-25, 00:02:04,VALID,917.742,VALID,0.2,VALID,97.9914,VALID,0,VALID,20.2293,VALID,28,VALID,0,
2014-11-25, 00:03:04,VALID,917.722,VALID,0,VALID,97.9838,VALID,0,VALID,20.2098,VALID,28,VALID,0,
2014-11-25, 00:04:04,VALID,917.71,VALID,0,VALID,98.0143,VALID,0,VALID,20.1498,VALID,28,VALID,0,
2014-11-25, 00:05:04,VALID,917.697,VALID,0,VALID,97.9914,VALID,0,VALID,20.1708,VALID,27,VALID,0,
2014-11-25, 00:06:04,VALID,917.697,VALID,0.2,VALID,97.9838,VALID,0,VALID,20.1708,VALID,27,VALID,0,
2014-11-25, 00:07:04,VALID,917.659,VALID,0,VALID,97.999,VALID,0,VALID,20.1513,VALID,28,VALID,0,
2014-11-25, 00:08:04,VALID,917.651,VALID,0,VALID,97.999,VALID,0,VALID,20.1123,VALID,27,VALID,0,
2014-11-25, 00:09:04,VALID,917.644,VALID,0,VALID,97.9914,VALID,0,VALID,20.1123,VALID,27,VALID,0,
2014-11-25, 00:10:04,VALID,917.607,VALID,0.2,VALID,98.0066,VALID,0,VALID,20.1123,VALID,28,VALID,0,
2014-11-25, 00:11:04,VALID,917.613,VALID,0,VALID,97.9914,VALID,0,VALID,20.1513,VALID,27,VALID,0,
2014-11-25, 00:12:04,VALID,917.614,VALID,0,VALID,97.9685,VALID,0,VALID,20.1318,VALID,28,VALID,0,
2014-11-25, 00:13:04,VALID,917.607,VALID,0,VALID,97.9838,VALID,0,VALID,20.1318,VALID,27,VALID,0,
2014-11-25, 00:14:04,VALID,917.618,VALID,0,VALID,97.999,VALID,0,VALID,20.1513,VALID,27,VALID,0,
2014-11-25, 00:15:04,VALID,917.652,VALID,0,VALID,97.999,VALID,0,VALID,20.1318,VALID,27,VALID,0,
2014-11-25, 00:16:04,VALID,917.639,VALID,0.2,VALID,97.9761,VALID,0,VALID,20.1513,VALID,27,VALID,0,
2014-11-25, 00:17:04,VALID,917.635,VALID,0,VALID,97.999,VALID,0,VALID,20.0733,VALID,27,VALID,0,
2014-11-25, 00:18:04,VALID,917.635,VALID,0,VALID,98.0143,VALID,0,VALID,20.0553,VALID,27,VALID,0,
2014-11-25, 00:19:04,VALID,917.637,VALID,0,VALID,98.0143,VALID,0,VALID,20.0553,VALID,27,VALID,0,
2014-11-25, 00:20:04,VALID,917.662,VALID,0,VALID,98.0143,VALID,0,VALID,20.0148,VALID,26,VALID,0,
2014-11-25, 00:21:04,VALID,917.658,VALID,0,VALID,98.0219,VALID,0,VALID,20.0358,VALID,30,VALID,0.536719,
2014-11-25, 00:22:04,VALID,917.671,VALID,0,VALID,98.0448,VALID,0,VALID,19.9563,VALID,35,VALID,1.275,
2014-11-25, 00:23:04,VALID,917.633,VALID,0,VALID,98.0371,VALID,0,VALID,19.9773,VALID,35,VALID,0.930859,
2014-11-25, 00:24:05,VALID,917.668,VALID,0,VALID,98.0219,VALID,0,VALID,19.9758,VALID,23,VALID,0.994922,
2014-11-25, 00:25:05,VALID,917.667,VALID,0.2,VALID,98.0295,VALID,0,VALID,19.9773,VALID,31,VALID,1.26484,
2014-11-25, 00:26:05,VALID,917.692,VALID,0,VALID,98.0371,VALID,0,VALID,19.9173,VALID,36,VALID,1.65781,
2014-11-25, 00:27:05,VALID,917.68,VALID,0.4,VALID,98.0371,VALID,0,VALID,19.9383,VALID,48,VALID,1.38867,
2014-11-25, 00:28:05,VALID,917.696,VALID,0.4,VALID,98.0371,VALID,0,VALID,19.8978,VALID,14,VALID,1.59258,
2014-11-25, 00:29:05,VALID,917.685,VALID,0.4,VALID,98.0448,VALID,0,VALID,19.8978,VALID,51,VALID,1.5832,
2014-11-25, 00:30:05,VALID,917.685,VALID,0.6,VALID,98.0295,VALID,0,VALID,19.8978,VALID,29,VALID,0.879297,
2014-11-25, 00:31:05,VALID,917.697,VALID,1,VALID,98.0295,VALID,0,VALID,19.8978,VALID,43,VALID,0.631641,
2014-11-25, 00:32:05,VALID,917.624,VALID,1,VALID,98.0371,VALID,0,VALID,19.8978,VALID,53,VALID,0.410156,
2014-11-25, 00:33:05,VALID,917.633,VALID,0.4,VALID,98.0676,VALID,0,VALID,19.8588,VALID,53,VALID,0,
2014-11-25, 00:34:05,VALID,917.608,VALID,0.8,VALID,98.06,VALID,0,VALID,19.8588,VALID,53,VALID,0,
2014-11-25, 00:35:05,VALID,917.613,VALID,0.8,VALID,98.06,VALID,0,VALID,19.8783,VALID,53,VALID,0,
2014-11-25, 00:36:05,VALID,917.588,VALID,0.8,VALID,98.0524,VALID,0,VALID,19.8978,VALID,52,VALID,0.227734,
2014-11-25, 00:37:05,VALID,917.602,VALID,0.4,VALID,98.0371,VALID,0.107441,VALID,19.8783,VALID,50,VALID,0,
2014-11-25, 00:38:05,VALID,917.558,VALID,0.2,VALID,98.0295,VALID,0,VALID,19.8993,VALID,38,VALID,0,
2014-11-25, 00:39:05,VALID,917.583,VALID,0.4,VALID,98.0295,VALID,0,VALID,19.8993,VALID,38,VALID,0,
2014-11-25, 00:40:05,VALID,917.582,VALID,0.4,VALID,98.0371,VALID,0,VALID,19.8978,VALID,38,VALID,0,
2014-11-25, 00:41:05,VALID,917.552,VALID,0.4,VALID,98.0295,VALID,0,VALID,19.8978,VALID,38,VALID,0,
2014-11-25, 00:42:05,VALID,917.556,VALID,0.4,VALID,98.0295,VALID,0,VALID,19.9383,VALID,38,VALID,0,
2014-11-25, 00:43:05,VALID,917.556,VALID,0.4,VALID,98.06,VALID,0,VALID,19.9173,VALID,38,VALID,0,
2014-11-25, 00:44:05,VALID,917.549,VALID,0.4,VALID,98.0448,VALID,0,VALID,19.9188,VALID,39,VALID,0,
2014-11-25, 00:45:05,VALID,917.54,VALID,0.2,VALID,98.0066,VALID,0,VALID,19.8993,VALID,59,VALID,0,
2014-11-25, 00:46:05,VALID,917.544,VALID,0,VALID,98.0371,VALID,0,VALID,19.8993,VALID,59,VALID,0,
2014-11-25, 00:47:05,VALID,917.539,VALID,0.4,VALID,98.0295,VALID,0,VALID,19.8783,VALID,59,VALID,0,
2014-11-25, 00:48:05,VALID,917.536,VALID,0.2,VALID,98.0371,VALID,0,VALID,19.8588,VALID,59,VALID,0,
2014-11-25, 00:49:05,VALID,917.551,VALID,0.2,VALID,98.0448,VALID,0,VALID,19.8588,VALID,59,VALID,0,
2014-11-25, 00:50:05,VALID,917.503,VALID,0.2,VALID,98.0371,VALID,0,VALID,19.8798,VALID,59,VALID,0,
2014-11-25, 00:51:05,VALID,917.5,VALID,0,VALID,98.0371,VALID,0,VALID,19.8393,VALID,59,VALID,0,
2014-11-25, 00:52:05,VALID,917.491,VALID,0.2,VALID,98.0143,VALID,0,VALID,19.8798,VALID,59,VALID,0,
2014-11-25, 00:53:05,VALID,917.488,VALID,0,VALID,98.0371,VALID,0,VALID,19.8783,VALID,59,VALID,0,
2014-11-25, 00:54:05,VALID,917.455,VALID,0.2,VALID,98.0295,VALID,0,VALID,19.8993,VALID,59,VALID,0,
2014-11-25, 00:55:05,VALID,917.484,VALID,0,VALID,98.0371,VALID,0,VALID,19.8993,VALID,59,VALID,0,
2014-11-25, 00:56:05,VALID,917.475,VALID,0,VALID,98.0219,VALID,0,VALID,19.8783,VALID,59,VALID,0,
2014-11-25, 00:57:05,VALID,917.469,VALID,0,VALID,98.0219,VALID,0,VALID,19.8978,VALID,59,VALID,0,
2014-11-25, 00:58:05,VALID,917.45,VALID,0,VALID,98.0219,VALID,0,VALID,19.9173,VALID,59,VALID,0,
2014-11-25, 00:59:05,VALID,917.447,VALID,0,VALID,98.0295,VALID,0,VALID,19.9578,VALID,59,VALID,0,
2014-11-25, 01:00:05,VALID,917.471,VALID,0,VALID,98.0295,VALID,0,VALID,19.9368,VALID,59,VALID,0,
2014-11-25, 01:01:05,VALID,917.446,VALID,0.2,VALID,98.0371,VALID,0,VALID,19.9383,VALID,59,VALID,0,
2014-11-25, 01:02:05,VALID,917.436,VALID,0,VALID,98.0448,VALID,0,VALID,19.8978,VALID,59,VALID,0,
2014-11-25, 01:03:05,VALID,917.427,VALID,0,VALID,98.0448,VALID,0,VALID,19.8993,VALID,59,VALID,0,
2014-11-25, 01:04:05,VALID,917.438,VALID,0,VALID,98.0371,VALID,0,VALID,19.8783,VALID,59,VALID,0,
2014-11-25, 01:05:05,VALID,917.414,VALID,0,VALID,98.0448,VALID,0,VALID,19.8993,VALID,59,VALID,0,
2014-11-25, 01:06:05,VALID,917.386,VALID,0.2,VALID,98.0448,VALID,0,VALID,19.8993,VALID,59,VALID,0,
2014-11-25, 01:07:05,VALID,917.387,VALID,0,VALID,98.0448,VALID,0,VALID,19.8783,VALID,59,VALID,0,
2014-11-25, 01:08:05,VALID,917.336,VALID,0,VALID,98.06,VALID,0,VALID,19.8783,VALID,59,VALID,0,
2014-11-25, 01:09:05,VALID,917.369,VALID,0,VALID,98.0371,VALID,0,VALID,19.8978,VALID,59,VALID,0,
2014-11-25, 01:10:05,VALID,917.333,VALID,0,VALID,98.0371,VALID,0,VALID,19.9188,VALID,59,VALID,0,
2014-11-25, 01:11:05,VALID,917.347,VALID,0,VALID,98.0448,VALID,0,VALID,19.9173,VALID,59,VALID,0,
2014-11-25, 01:12:05,VALID,917.34,VALID,0,VALID,97.999,VALID,0,VALID,19.9173,VALID,59,VALID,0,
2014-11-25, 01:13:05,VALID,917.299,VALID,0,VALID,98.0219,VALID,0,VALID,19.9578,VALID,59,VALID,0,
2014-11-25, 01:14:05,VALID,917.302,VALID,0,VALID,98.0295,VALID,0,VALID,19.9368,VALID,59,VALID,0,
2014-11-25, 01:15:05,VALID,917.285,VALID,0,VALID,98.0143,VALID,0,VALID,19.9368,VALID,59,VALID,0,
2014-11-25, 01:16:05,VALID,917.261,VALID,0,VALID,98.0143,VALID,0,VALID,19.9353,VALID,59,VALID,0,
2014-11-25, 01:17:05,VALID,917.272,VALID,0,VALID,98.0295,VALID,0,VALID,19.9563,VALID,59,VALID,0,
2014-11-25, 01:18:05,VALID,917.274,VALID,0.2,VALID,98.0219,VALID,0,VALID,19.9563,VALID,59,VALID,0,
2014-11-25, 01:19:05,VALID,917.257,VALID,0,VALID,97.999,VALID,0,VALID,19.9953,VALID,59,VALID,0,
2014-11-25, 01:20:05,VALID,917.256,VALID,0,VALID,98.0066,VALID,0,VALID,19.9953,VALID,59,VALID,0,
2014-11-25, 01:21:05,VALID,917.269,VALID,0,VALID,98.0219,VALID,0,VALID,19.9758,VALID,59,VALID,0,
2014-11-25, 01:22:05,VALID,917.232,VALID,0,VALID,98.0143,VALID,0,VALID,20.0148,VALID,59,VALID,0,
2014-11-25, 01:23:05,VALID,917.207,VALID,0,VALID,97.9914,VALID,0,VALID,20.0358,VALID,59,VALID,0,
2014-11-25, 01:24:05,VALID,917.23,VALID,0,VALID,98.0143,VALID,0,VALID,20.0148,VALID,59,VALID,0,
2014-11-25, 01:25:05,VALID,917.184,VALID,0.2,VALID,97.9838,VALID,0,VALID,20.0538,VALID,59,VALID,0,
2014-11-25, 01:26:05,VALID,917.196,VALID,0,VALID,98.0143,VALID,0,VALID,20.0148,VALID,59,VALID,0,
2014-11-25, 01:27:05,VALID,917.182,VALID,0,VALID,98.0219,VALID,0,VALID,19.9968,VALID,59,VALID,0,
2014-11-25, 01:28:05,VALID,917.179,VALID,0,VALID,98.0143,VALID,0,VALID,19.9758,VALID,59,VALID,0,
2014-11-25, 01:29:05,VALID,917.172,VALID,0,VALID,98.0066,VALID,0,VALID,20.0163,VALID,59,VALID,0,
2014-11-25, 01:30:05,VALID,917.166,VALID,0,VALID,98.0066,VALID,0,VALID,20.0163,VALID,59,VALID,0,
2014-11-25, 01:31:05,VALID,917.097,VALID,0,VALID,98.0066,VALID,0,VALID,19.9773,VALID,59,VALID,0,
2014-11-25, 01:32:05,VALID,917.142,VALID,0,VALID,98.0371,VALID,0,VALID,19.9368,VALID,59,VALID,0,
2014-11-25, 01:33:05,VALID,917.108,VALID,0,VALID,98.0066,VALID,0,VALID,19.9578,VALID,59,VALID,0,
2014-11-25, 01:34:05,VALID,917.081,VALID,0.2,VALID,98.0295,VALID,0,VALID,19.9563,VALID,59,VALID,0,
2014-11-25, 01:35:05,VALID,917.079,VALID,0,VALID,98.0219,VALID,0,VALID,19.9383,VALID,59,VALID,0,
2014-11-25, 01:36:05,VALID,917.069,VALID,0,VALID,98.0219,VALID,0,VALID,19.9173,VALID,59,VALID,0,
2014-11-25, 01:37:05,VALID,917.052,VALID,0,VALID,98.0219,VALID,0,VALID,19.9383,VALID,59,VALID,0,
2014-11-25, 01:38:05,VALID,917.066,VALID,0,VALID,98.0371,VALID,0,VALID,19.9188,VALID,59,VALID,0,
2014-11-25, 01:39:05,VALID,917.008,VALID,0,VALID,98.0371,VALID,0,VALID,19.8978,VALID,59,VALID,0,
2014-11-25, 01:40:05,VALID,917.018,VALID,0,VALID,98.0448,VALID,0,VALID,19.9188,VALID,59,VALID,0,
2014-11-25, 01:41:05,VALID,916.975,VALID,0,VALID,98.0371,VALID,0,VALID,19.8978,VALID,59,VALID,0,
2014-11-25, 01:42:05,VALID,916.989,VALID,0,VALID,98.0219,VALID,0,VALID,19.8993,VALID,59,VALID,0,
2014-11-25, 01:43:05,VALID,916.961,VALID,0,VALID,98.0295,VALID,0,VALID,19.9188,VALID,59,VALID,0,
2014-11-25, 01:44:05,VALID,916.94,VALID,0,VALID,98.06,VALID,0,VALID,19.8588,VALID,59,VALID,0,
2014-11-25, 01:45:05,VALID,916.936,VALID,0,VALID,98.0295,VALID,0,VALID,19.8783,VALID,59,VALID,0,
2014-11-25, 01:46:05,VALID,916.913,VALID,0,VALID,97.999,VALID,0,VALID,19.8783,VALID,59,VALID,0,
2014-11-25, 01:47:05,VALID,916.901,VALID,0,VALID,98.0371,VALID,0,VALID,19.9188,VALID,59,VALID,0,
2014-11-25, 01:48:05,VALID,916.871,VALID,0,VALID,98.0371,VALID,0,VALID,19.8978,VALID,59,VALID,0,
2014-11-25, 01:49:05,VALID,916.921,VALID,0,VALID,98.0371,VALID,0,VALID,19.8783,VALID,59,VALID,0,
2014-11-25, 01:50:05,VALID,916.867,VALID,0,VALID,98.0219,VALID,0,VALID,19.8978,VALID,59,VALID,0,
2014-11-25, 01:51:05,VALID,916.866,VALID,0,VALID,98.0295,VALID,0,VALID,19.8978,VALID,59,VALID,0,
2014-11-25, 01:52:05,VALID,916.873,VALID,0,VALID,98.0448,VALID,0,VALID,19.8588,VALID,59,VALID,0,
2014-11-25, 01:53:05,VALID,916.844,VALID,0,VALID,98.0371,VALID,0,VALID,19.8588,VALID,59,VALID,0,
2014-11-25, 01:54:05,VALID,916.813,VALID,0,VALID,98.0295,VALID,0,VALID,19.8588,VALID,59,VALID,0,
2014-11-25, 01:55:05,VALID,916.795,VALID,0,VALID,98.0371,VALID,0,VALID,19.8588,VALID,59,VALID,0,
2014-11-25, 01:56:05,VALID,916.796,VALID,0,VALID,98.0371,VALID,0,VALID,19.8783,VALID,59,VALID,0,
2014-11-25, 01:57:05,VALID,916.786,VALID,0,VALID,98.0371,VALID,0,VALID,19.8993,VALID,59,VALID,0,
2014-11-25, 01:58:05,VALID,916.8,VALID,0,VALID,98.0295,VALID,0,VALID,19.8783,VALID,59,VALID,0,
2014-11-25, 01:59:05,VALID,916.758,VALID,0,VALID,98.0219,VALID,0,VALID,19.8978,VALID,59,VALID,0,
2014-11-25, 02:00:05,VALID,916.775,VALID,0,VALID,98.0371,VALID,0,VALID,19.8798,VALID,59,VALID,0,
2014-11-25, 02:01:05,VALID,916.767,VALID,0,VALID,98.06,VALID,0,VALID,19.8393,VALID,59,VALID,0,
2014-11-25, 02:02:05,VALID,916.756,VALID,0,VALID,98.0524,VALID,0,VALID,19.8198,VALID,59,VALID,0,
2014-11-25, 02:03:05,VALID,916.76,VALID,0,VALID,98.0676,VALID,0,VALID,19.7808,VALID,60,VALID,0,
2014-11-25, 02:04:05,VALID,916.751,VALID,0,VALID,98.06,VALID,0,VALID,19.7808,VALID,59,VALID,0,
2014-11-25, 02:05:05,VALID,916.753,VALID,0,VALID,98.0524,VALID,0,VALID,19.7808,VALID,59,VALID,0,
2014-11-25, 02:06:05,VALID,916.752,VALID,0,VALID,98.0448,VALID,0,VALID,19.7808,VALID,59,VALID,0,
2014-11-25, 02:07:05,VALID,916.769,VALID,0,VALID,98.06,VALID,0,VALID,19.7613,VALID,59,VALID,0,
2014-11-25, 02:08:05,VALID,916.793,VALID,0,VALID,98.0448,VALID,0,VALID,19.7823,VALID,59,VALID,0,
2014-11-25, 02:09:05,VALID,916.796,VALID,0.2,VALID,98.0524,VALID,0,VALID,19.7808,VALID,59,VALID,0,
2014-11-25, 02:10:05,VALID,916.779,VALID,0,VALID,98.0676,VALID,0,VALID,19.7613,VALID,59,VALID,0,
2014-11-25, 02:11:05,VALID,916.743,VALID,0,VALID,98.0676,VALID,0,VALID,19.7823,VALID,60,VALID,0,
2014-11-25, 02:12:05,VALID,916.745,VALID,0,VALID,98.06,VALID,0,VALID,19.7613,VALID,60,VALID,0,
2014-11-25, 02:13:05,VALID,916.754,VALID,0,VALID,98.0524,VALID,0,VALID,19.7613,VALID,65,VALID,0,
2014-11-25, 02:14:05,VALID,916.765,VALID,0.2,VALID,98.06,VALID,0,VALID,19.7613,VALID,118,VALID,0.533984,
2014-11-25, 02:15:05,VALID,916.771,VALID,0,VALID,98.06,VALID,0,VALID,19.7613,VALID,118,VALID,1.03008,
2014-11-25, 02:16:05,VALID,916.782,VALID,0,VALID,98.0371,VALID,0,VALID,19.7808,VALID,124,VALID,0.208984,
2014-11-25, 02:17:05,VALID,916.757,VALID,0,VALID,98.0448,VALID,0,VALID,19.8018,VALID,128,VALID,0.250391,
2014-11-25, 02:18:05,VALID,916.758,VALID,0.2,VALID,98.0524,VALID,0,VALID,19.7808,VALID,135,VALID,0.472266,
2014-11-25, 02:19:05,VALID,916.747,VALID,0,VALID,98.0448,VALID,0,VALID,19.8018,VALID,147,VALID,0,
2014-11-25, 07:03:04,VALID,916.81,VALID,0,VALID,98.1134,VALID,56.7289,VALID,19.7238,VALID,129,VALID,1.65664,
2014-11-25, 07:04:04,VALID,916.813,VALID,0,VALID,98.121,VALID,58.8778,VALID,19.7028,VALID,132,VALID,1.79023,
2014-11-25, 07:05:04,VALID,916.819,VALID,0,VALID,98.1057,VALID,61.0266,VALID,19.7223,VALID,121,VALID,1.06641,
2014-11-25, 07:06:04,VALID,916.81,VALID,0,VALID,98.1134,VALID,63.068,VALID,19.7418,VALID,149,VALID,1.67148,
2014-11-25, 07:07:04,VALID,916.825,VALID,0,VALID,98.1057,VALID,65.2168,VALID,19.7613,VALID,136,VALID,1.44102,
2014-11-25, 07:08:04,VALID,916.85,VALID,0,VALID,98.1057,VALID,66.8284,VALID,19.7613,VALID,127,VALID,1.04219,
2014-11-25, 07:09:04,VALID,916.866,VALID,0,VALID,98.1057,VALID,68.2251,VALID,19.7808,VALID,146,VALID,1.00156,
2014-11-25, 07:10:04,VALID,916.881,VALID,0,VALID,98.0905,VALID,69.2995,VALID,19.8213,VALID,117,VALID,0.715234,
2014-11-25, 07:11:04,VALID,916.92,VALID,0,VALID,98.1057,VALID,70.374,VALID,19.8003,VALID,108,VALID,1.25078,
2014-11-25, 07:12:04,VALID,916.923,VALID,0,VALID,98.0905,VALID,71.3409,VALID,19.8408,VALID,108,VALID,1.01445,
2014-11-25, 07:13:04,VALID,916.997,VALID,0,VALID,98.0905,VALID,72.7377,VALID,19.8198,VALID,116,VALID,1.55313,
2014-11-25, 07:14:04,VALID,917.001,VALID,0,VALID,98.0981,VALID,73.8121,VALID,19.8393,VALID,112,VALID,0.962109,
2014-11-25, 07:15:04,VALID,916.988,VALID,0,VALID,98.0905,VALID,74.8865,VALID,19.8603,VALID,134,VALID,1.01133,
2014-11-25, 07:16:04,VALID,917.024,VALID,0,VALID,98.0905,VALID,75.9609,VALID,19.8603,VALID,133,VALID,0.987891,
2014-11-25, 07:17:04,VALID,917.026,VALID,0,VALID,98.0981,VALID,76.6055,VALID,19.8588,VALID,143,VALID,0.920313,
2014-11-25, 07:18:04,VALID,917.065,VALID,0,VALID,98.0752,VALID,76.9279,VALID,19.8798,VALID,153,VALID,1.07891,
2014-11-25, 07:19:04,VALID,917.078,VALID,0,VALID,98.1057,VALID,77.68,VALID,19.8783,VALID,152,VALID,1.18281,
2014-11-25, 07:20:04,VALID,917.066,VALID,0,VALID,98.1286,VALID,78.3246,VALID,19.8588,VALID,144,VALID,1.21445,
2014-11-25, 07:21:04,VALID,917.07,VALID,0,VALID,98.0905,VALID,78.8618,VALID,19.8978,VALID,129,VALID,1.15977,
2014-11-25, 07:22:04,VALID,917.104,VALID,0,VALID,98.0829,VALID,79.2916,VALID,19.9383,VALID,177,VALID,0.866797,
2014-11-25, 07:23:04,VALID,917.12,VALID,0,VALID,98.0829,VALID,79.9362,VALID,19.9173,VALID,156,VALID,1.01992,
2014-11-25, 07:24:04,VALID,917.12,VALID,0,VALID,98.0752,VALID,80.7957,VALID,19.9578,VALID,140,VALID,1.72148,
2014-11-25, 07:25:04,VALID,917.186,VALID,0,VALID,98.06,VALID,81.6553,VALID,19.9563,VALID,138,VALID,1.40547,
2014-11-25, 07:26:04,VALID,917.187,VALID,0,VALID,98.0752,VALID,82.4074,VALID,19.9563,VALID,112,VALID,0.977734,
2014-11-25, 07:27:04,VALID,917.217,VALID,0,VALID,98.0752,VALID,83.052,VALID,19.9563,VALID,151,VALID,0.851172,
2014-11-25, 07:28:04,VALID,917.245,VALID,0,VALID,98.0676,VALID,83.6967,VALID,19.9758,VALID,61,VALID,1.2875,
2014-11-25, 07:29:04,VALID,917.236,VALID,0,VALID,98.0371,VALID,84.2339,VALID,19.9758,VALID,52,VALID,1.84375,
2014-11-25, 07:30:04,VALID,917.28,VALID,0,VALID,98.0448,VALID,85.0934,VALID,20.0163,VALID,47,VALID,0.658594,
2014-11-25, 07:31:04,VALID,917.328,VALID,0,VALID,98.0448,VALID,85.8455,VALID,20.0148,VALID,47,VALID,0.471094,
2014-11-25, 07:32:04,VALID,917.338,VALID,0,VALID,98.0371,VALID,86.4901,VALID,20.0343,VALID,41,VALID,1.17266,
2014-11-25, 07:33:04,VALID,917.348,VALID,0,VALID,98.0371,VALID,87.0273,VALID,20.0343,VALID,65,VALID,1.26133,
2014-11-25, 07:34:04,VALID,917.365,VALID,0,VALID,98.0676,VALID,88.2092,VALID,20.0343,VALID,97,VALID,1.47773,
2014-11-25, 07:35:04,VALID,917.365,VALID,0,VALID,98.0448,VALID,89.4985,VALID,20.0343,VALID,71,VALID,1.05117,
2014-11-25, 07:36:04,VALID,917.362,VALID,0,VALID,98.0524,VALID,90.8952,VALID,20.0148,VALID,119,VALID,1.73984,
2014-11-25, 07:37:04,VALID,917.346,VALID,0,VALID,98.0371,VALID,91.7547,VALID,20.0148,VALID,110,VALID,1.43164,
2014-11-25, 07:38:04,VALID,917.362,VALID,0,VALID,98.0143,VALID,92.8292,VALID,20.0538,VALID,116,VALID,0.542578,
2014-11-25, 07:39:04,VALID,917.36,VALID,0,VALID,98.0219,VALID,93.6887,VALID,20.0944,VALID,122,VALID,0.710938,
2014-11-25, 07:40:04,VALID,917.382,VALID,0,VALID,97.999,VALID,94.8705,VALID,20.0733,VALID,115,VALID,1.05039,
2014-11-25, 07:41:04,VALID,917.388,VALID,0,VALID,98.0066,VALID,95.9449,VALID,20.0733,VALID,123,VALID,1.41797,
2014-11-25, 07:42:04,VALID,917.416,VALID,0,VALID,98.0295,VALID,96.8045,VALID,20.0733,VALID,138,VALID,1.82539,
2014-11-25, 07:43:04,VALID,917.445,VALID,0,VALID,97.999,VALID,97.4491,VALID,20.0733,VALID,142,VALID,1.18945,
2014-11-25, 07:44:04,VALID,917.47,VALID,0,VALID,97.999,VALID,97.9863,VALID,20.1123,VALID,163,VALID,1.44023,
2014-11-25, 07:45:04,VALID,917.485,VALID,0,VALID,97.999,VALID,98.7384,VALID,20.1123,VALID,158,VALID,1.21758,
2014-11-25, 07:46:04,VALID,917.493,VALID,0,VALID,97.9533,VALID,99.8128,VALID,20.1318,VALID,162,VALID,1.39648,
2014-11-25, 07:47:04,VALID,917.526,VALID,0,VALID,97.9838,VALID,100.887,VALID,20.1318,VALID,135,VALID,1.06641,
2014-11-25, 07:48:04,VALID,917.518,VALID,0,VALID,97.9533,VALID,101.747,VALID,20.1318,VALID,171,VALID,1.08203,
2014-11-25, 07:49:04,VALID,917.553,VALID,0,VALID,97.9533,VALID,102.821,VALID,20.1318,VALID,147,VALID,1.1418,
2014-11-25, 07:50:04,VALID,917.525,VALID,0,VALID,97.938,VALID,104.218,VALID,20.1513,VALID,130,VALID,0.911328,
2014-11-25, 07:51:04,VALID,917.551,VALID,0,VALID,97.938,VALID,105.185,VALID,20.1303,VALID,148,VALID,1.16445,
2014-11-25, 07:52:04,VALID,917.533,VALID,0,VALID,97.9075,VALID,105.83,VALID,20.1708,VALID,150,VALID,1.64297,
2014-11-25, 07:53:04,VALID,917.549,VALID,0,VALID,97.9075,VALID,106.044,VALID,20.1708,VALID,136,VALID,1.94023,
2014-11-25, 07:54:04,VALID,917.599,VALID,0,VALID,97.8847,VALID,106.259,VALID,20.1708,VALID,135,VALID,1.1668,
2014-11-25, 07:55:04,VALID,917.618,VALID,0,VALID,97.8694,VALID,106.474,VALID,20.1708,VALID,158,VALID,1.08906,
2014-11-25, 07:56:04,VALID,917.595,VALID,0,VALID,97.8313,VALID,107.978,VALID,20.1903,VALID,114,VALID,1.68086,
2014-11-25, 07:57:04,VALID,917.65,VALID,0,VALID,97.8084,VALID,110.342,VALID,20.2098,VALID,115,VALID,1.79297,
2014-11-25, 07:58:04,VALID,917.649,VALID,0,VALID,97.7779,VALID,113.35,VALID,20.2083,VALID,120,VALID,1.40352,
2014-11-25, 07:59:04,VALID,917.637,VALID,0,VALID,97.7322,VALID,116.466,VALID,20.2489,VALID,108,VALID,1.36836,
2014-11-25, 08:00:04,VALID,917.672,VALID,0,VALID,97.6941,VALID,119.904,VALID,20.2489,VALID,119,VALID,2.16602,
2014-11-25, 08:01:04,VALID,917.63,VALID,0,VALID,97.6407,VALID,123.88,VALID,20.2684,VALID,122,VALID,1.35469,
2014-11-25, 08:02:04,VALID,917.671,VALID,0,VALID,97.595,VALID,129.252,VALID,20.2879,VALID,103,VALID,1.18438,
2014-11-25, 08:03:04,VALID,917.627,VALID,0,VALID,97.534,VALID,135.698,VALID,20.2879,VALID,103,VALID,1.57266,
2014-11-25, 08:04:04,VALID,917.647,VALID,0,VALID,97.473,VALID,140.64,VALID,20.3464,VALID,106,VALID,0.938281,
2014-11-25, 08:05:04,VALID,917.688,VALID,0,VALID,97.4196,VALID,144.831,VALID,20.3659,VALID,104,VALID,1.06367,
2014-11-25, 08:06:04,VALID,917.652,VALID,0,VALID,97.3434,VALID,149.128,VALID,20.3854,VALID,136,VALID,1.05,
2014-11-25, 08:07:04,VALID,917.691,VALID,0,VALID,97.2824,VALID,152.459,VALID,20.3659,VALID,126,VALID,1.50078,
2014-11-25, 08:08:04,VALID,917.681,VALID,0,VALID,97.1604,VALID,154.5,VALID,20.4049,VALID,107,VALID,0.692578,
2014-11-25, 08:09:04,VALID,917.651,VALID,0,VALID,97.1223,VALID,155.36,VALID,20.4829,VALID,107,VALID,0.599219,
2014-11-25, 08:10:04,VALID,917.663,VALID,0,VALID,97.0842,VALID,156.112,VALID,20.5024,VALID,123,VALID,0.496094,
2014-11-25, 08:11:04,VALID,917.646,VALID,0,VALID,96.9927,VALID,156.649,VALID,20.5024,VALID,107,VALID,0.8,
2014-11-25, 08:12:04,VALID,917.673,VALID,0,VALID,97.0156,VALID,155.897,VALID,20.5789,VALID,109,VALID,0.468359,
2014-11-25, 08:13:04,VALID,917.628,VALID,0,VALID,96.9775,VALID,158.046,VALID,20.5804,VALID,123,VALID,0.655469,
2014-11-25, 08:14:04,VALID,917.617,VALID,0,VALID,96.9622,VALID,160.302,VALID,20.6179,VALID,141,VALID,0.766016,
2014-11-25, 08:15:04,VALID,917.619,VALID,0,VALID,96.9241,VALID,160.732,VALID,20.6585,VALID,147,VALID,0.688672,
2014-11-25, 08:16:04,VALID,917.649,VALID,0,VALID,96.8936,VALID,161.269,VALID,20.6975,VALID,140,VALID,0.609375,
2014-11-25, 08:17:04,VALID,917.644,VALID,0,VALID,96.8631,VALID,161.162,VALID,20.6959,VALID,147,VALID,0.932813,
2014-11-25, 08:18:04,VALID,917.622,VALID,0,VALID,96.6954,VALID,161.162,VALID,20.678,VALID,138,VALID,1.0668,
2014-11-25, 08:19:04,VALID,917.612,VALID,0,VALID,96.6497,VALID,160.732,VALID,20.7154,VALID,140,VALID,0.969531,
2014-11-25, 08:20:04,VALID,917.62,VALID,0,VALID,96.5734,VALID,159.658,VALID,20.717,VALID,152,VALID,1.01016,
2014-11-25, 08:21:04,VALID,917.617,VALID,0,VALID,96.4591,VALID,159.55,VALID,20.7154,VALID,161,VALID,1.30156,
2014-11-25, 08:22:04,VALID,917.576,VALID,0,VALID,96.4362,VALID,159.228,VALID,20.7349,VALID,168,VALID,1.2918,
2014-11-25, 08:23:04,VALID,917.58,VALID,0,VALID,96.4286,VALID,159.013,VALID,20.795,VALID,165,VALID,1.09922,
2014-11-25, 08:24:04,VALID,917.542,VALID,0,VALID,96.2761,VALID,158.153,VALID,20.7349,VALID,169,VALID,1.02969,
2014-11-25, 08:25:04,VALID,917.559,VALID,0,VALID,96.2533,VALID,157.509,VALID,20.7934,VALID,181,VALID,0.869141,
2014-11-25, 08:26:04,VALID,917.526,VALID,0,VALID,96.3142,VALID,157.401,VALID,20.7934,VALID,147,VALID,1.44687,
2014-11-25, 08:27:04,VALID,917.531,VALID,0,VALID,96.238,VALID,157.509,VALID,20.8129,VALID,142,VALID,1.28789,
2014-11-25, 08:28:04,VALID,917.527,VALID,0,VALID,96.1846,VALID,156.542,VALID,20.7934,VALID,155,VALID,1.28711,
2014-11-25, 08:29:04,VALID,917.517,VALID,0,VALID,95.9788,VALID,154.93,VALID,20.7349,VALID,164,VALID,1.83672,
2014-11-25, 08:30:04,VALID,917.512,VALID,0,VALID,96.0322,VALID,154.071,VALID,20.7934,VALID,133,VALID,1.14453,
2014-11-25, 08:31:04,VALID,917.521,VALID,0,VALID,96.0932,VALID,154.178,VALID,20.8129,VALID,112,VALID,0.798437,